Location: Newark
(15.4608°S, 41.1635°W)
Time: 07:25:23
(UTC+00:00)

Transit 4A - Pass Details

Date: 11 March 2021
Orbit: 869 x 975 km, 66.8° (Epoch: 22 April)

Event Time Altitude Azimuth Distance (km) Brightness Sun altitude
Rises 08:28:39 0° 187° (S) 3,636 11.0 -5.3°
Reaches altitude 10° 08:31:28 10° 177° (S) 2,700 10.4 -4.6°
Maximum altitude 08:37:07 34° 114° (ESE) 1,547 10.0 -3.3°
Drops below altitude 10° 08:42:47 10° 51° (NE) 2,713 11.1 -1.9°
Sets 08:45:35 0° 41° (NE) 3,656 11.6 -1.2°
